Location: Unspecified
(0.0000°N, 0.0000°E)
Time: 05:40:00
(UTC+00:00)

X-37B - Pass Details

Date: 08 August 2020
Orbit: 379 x 395 km, 45.0° (Epoch: 12 August)

Event Time Altitude Azimuth Distance (km) Brightness Sun altitude
Exits shadow 04:25:20 36° 75° (ENE) 640 2.2 -24.0°
Drops below altitude 10° 04:27:49 10° 119° (ESE) 1,424 4.0 -23.5°
Sets 04:29:58 0° 127° (SE) 2,281 5.0 -22.9°
